User: anonymous   Login
Location: Unspecified
(0.0000°N, 0.0000°E)
Time: 12:39:01
(UTC+02:00)
Language:

Cosmos 2219 - Orbit

View from above orbital plane
View from above orbital plane
View from above satellite
View from above satellite

Ground track
Ground track

The orbit data is extracted from the following two-line orbital elements,

1 22219U 92076A   17178.53101454 +.00000298 +00000-0 +18271-3 0  9998
2 22219 071.0580 176.1107 0017740 007.8103 352.3292 14.13610811269672
Epoch (UTC): 27 June 2017 12:44:39
Eccentricity: 0.0017740
inclination: 71.0580°
perigee height: 834 km
apogee height: 860 km
right ascension of ascending node: 176.1107°
argument of perigee: 7.8103°
revolutions per day: 14.13610811
mean anomaly at epoch: 352.3292°
orbit number at epoch: 26967

The dashed part of the orbit path shows where the satellite is in the earth's shadow,  

DLR